EHI
6 10 15 17 15 13 12 12 11 8 6 5 3 1 0 0 0 0 0 0 0 0 0 0 0 1 1 1 0 0 0 0 0 0 0 0 0 0 0 0 0 0 0
7 11 17 20 19 17 15 14 13 11 9 8 5 2 0 0 0 0 0 0 0 0 0 0 0 0 0 0 0 0 0 0 0 0 0 0 0 0 0 0 0 0 0
8 12 16 21 24 24 21 19 18 17 16 13 9 6 3 3 2 1 0 0 0 0 0 0 0 0 0 0 0 0 0 0 0 0 0 0 0 0 0 0 0 0 0
10 13 15 18 24 26 26 25 23 24 22 20 17 13 9 6 4 1 0 0 0 0 0 0 0 0 0 0 1 1 1 0 0 0 0 0 0 0 0 0 0 0 0
14 14 14 16 21 25 27 28 29 30 28 25 23 18 12 8 4 2 1 1 0 0 0 1 1 1 1 1 1 2 2 1 0 0 0 0 0 0 0 0 0 0 0
16 16 16 17 20 24 29 33 34 35 32 29 26 21 13 7 3 2 2 2 1 1 1 1 1 1 1 2 3 3 3 2 1 1 0 0 0 0 0 0 0 0 0
19 20 22 22 22 25 31 36 40 40 37 33 28 22 14 7 3 3 3 3 3 2 2 1 1 1 1 2 2 3 3 3 3 1 0 0 0 0 0 0 0 0 0
23 24 27 27 26 27 31 37 42 43 40 36 30 24 17 9 4 3 3 3 3 3 2 2 1 0 0 1 1 1 3 4 3 1 0 0 0 0 0 0 0 0 0
25 26 29 30 30 29 31 35 39 41 39 37 32 26 19 12 7 5 4 3 3 3 1 1 0 1 1 1 0 0 1 2 1 0 0 0 0 0 0 0 0 0 0
23 25 26 28 30 30 32 34 36 36 35 36 34 27 21 15 11 8 5 4 3 3 2 1 2 2 2 1 1 0 0 0 0 0 0 0 0 0 0 0 0 0 0
23 23 23 24 27 30 32 33 33 31 29 33 34 30 23 18 13 10 7 6 5 4 3 4 5 4 2 2 2 1 0 0 0 0 0 0 0 0 0 0 0 0 0
23 23 22 24 27 28 28 28 28 27 26 29 32 30 25 20 16 13 10 7 7 6 5 7 7 5 3 2 2 1 0 0 0 0 0 0 0 0 0 0 0 0 0
23 23 23 26 27 26 24 23 25 26 26 27 27 25 23 22 20 16 10 6 6 6 6 7 7 6 4 3 1 0 1 1 0 0 0 0 1 1 1 1 0 0 1
23 24 24 24 23 22 23 24 25 26 27 26 23 21 22 23 22 18 11 6 5 6 6 6 6 5 4 2 1 1 2 2 1 1 0 1 2 3 2 1 1 1 1
26 26 26 23 19 18 20 25 26 25 26 26 23 22 23 23 21 16 10 6 5 6 6 6 5 4 3 2 2 3 4 3 2 1 1 1 2 2 2 1 1 1 1
28 29 28 23 17 15 17 22 26 25 23 24 23 22 23 23 20 16 11 8 6 5 6 6 5 4 3 1 1 2 4 4 2 1 0 1 1 1 1 0 1 1 0
25 27 26 21 15 12 13 19 24 23 21 21 21 21 22 22 20 17 13 11 8 7 7 6 4 4 2 1 0 1 2 3 2 1 1 1 0 0 0 0 0 0 0
20 20 19 15 11 9 10 15 19 20 20 20 20 20 20 19 18 17 15 14 12 10 9 7 5 3 2 1 0 0 1 2 2 2 2 2 1 0 0 0 1 1 1
18 15 12 10 8 8 10 13 17 19 19 20 20 19 17 14 13 13 14 14 13 12 11 10 8 4 2 1 0 0 1 2 3 3 3 2 1 0 0 0 1 1 0
16 12 9 7 7 8 9 12 16 19 19 19 18 15 12 10 9 10 12 12 12 12 13 12 10 7 3 2 1 1 2 3 3 3 2 1 0 0 0 0 0 0 0
14 11 8 6 5 6 8 10 14 16 15 14 13 10 8 7 7 8 11 12 12 11 11 11 9 7 5 3 2 1 2 3 3 3 1 0 0 0 0 0 0 0 0
13 10 7 5 5 5 7 9 11 11 9 7 6 6 5 5 6 9 11 13 13 11 9 9 8 6 5 3 1 0 1 2 3 2 1 0 0 0 0 0 0 0 0
13 10 7 6 6 6 8 9 9 8 6 4 2 4 5 7 8 9 11 13 12 10 8 7 7 5 4 3 1 0 0 1 2 1 0 0 0 0 0 0 0 0 0
12 9 7 6 6 7 7 7 7 7 6 4 3 4 7 9 9 9 10 11 11 9 8 7 7 5 3 2 1 0 0 0 0 0 0 0 0 0 0 0 0 0 0
11 9 7 6 6 6 5 5 6 7 5 4 4 5 7 9 10 9 8 8 7 6 6 6 6 4 3 2 1 0 0 0 0 0 0 0 0 0 0 0 0 0 0
9 8 6 6 6 5 4 5 6 6 5 4 4 6 7 8 9 9 6 4 3 3 3 4 4 4 3 2 1 0 0 0 0 0 0 0 0 0 0 0 0 0 0
Wind_Speed
8 7 8 8 8 7 7 7 7 5 5 3 3 2 2 2 2 2 3 3 3 4 3 2 2 2 2 2 2 2 1 1 1 2 2 2 1 1 1 2 2 3 4
6 7 8 9 9 9 9 8 8 7 6 4 3 2 2 1 2 2 2 3 3 3 3 3 2 2 2 2 2 2 1 0 1 2 1 2 3 2 1 1 2 3 3
9 9 9 10 9 10 10 9 8 7 6 5 3 2 2 1 1 1 1 2 3 3 3 3 3 2 2 2 3 3 3 1 0 1 2 2 1 2 2 1 2 2 2
9 9 10 10 10 11 9 8 8 7 6 6 5 5 4 3 4 2 2 2 3 3 4 3 3 3 2 3 3 3 2 3 1 1 1 1 2 1 1 2 1 2 3
10 10 11 10 9 8 8 7 7 6 6 6 6 5 4 3 2 2 3 2 2 3 3 4 3 3 3 3 3 3 3 3 3 2 2 1 1 1 2 2 2 2 2
9 9 8 7 7 7 7 7 7 7 6 6 6 6 6 5 3 3 3 2 2 2 3 4 4 4 3 4 4 4 4 3 3 2 2 2 2 2 2 3 3 3 3
7 7 8 8 7 8 8 7 8 7 6 6 6 6 5 5 5 4 4 3 2 2 3 4 4 3 4 4 3 4 4 4 4 4 3 3 3 2 2 2 2 2 2
5 6 8 8 8 8 8 8 8 8 7 7 5 4 4 4 4 5 4 4 3 3 3 4 4 4 4 4 3 3 4 3 4 4 4 3 3 3 3 3 2 2 2
5 6 6 6 7 8 8 8 9 7 7 7 6 5 5 5 5 4 4 3 3 3 3 4 4 4 3 4 3 3 4 3 3 4 4 3 3 3 3 3 3 3 2
3 4 4 5 6 6 6 5 7 7 6 6 6 5 5 5 4 4 4 4 3 3 3 3 3 3 3 3 3 3 3 3 3 2 2 2 2 2 2 3 3 3 3
4 4 3 3 3 4 4 5 5 5 5 6 5 4 4 4 4 4 4 4 3 3 3 3 3 3 3 2 3 3 3 3 2 2 2 3 2 2 2 2 2 3 3
3 3 4 4 4 4 3 4 4 5 5 5 4 4 4 4 4 4 3 3 3 3 3 2 2 2 2 2 2 2 2 2 2 1 1 2 2 2 2 2 2 2 3
4 4 4 4 4 3 3 3 3 3 3 4 4 4 3 4 4 4 3 3 3 2 2 2 2 2 2 2 2 2 2 1 1 1 1 2 1 2 1 2 2 2 1
4 4 4 4 4 3 3 3 2 3 3 4 4 4 3 3 3 3 2 2 2 2 2 2 2 1 1 1 2 2 2 1 1 1 0 1 1 1 1 1 1 1 1
4 4 3 2 3 3 3 3 2 2 3 4 4 4 3 2 2 2 2 2 2 2 2 1 1 0 1 1 2 2 2 2 2 1 1 1 2 3 2 1 1 2 2
3 3 3 2 2 2 3 3 2 2 3 4 3 3 3 3 3 2 2 2 2 2 2 1 1 1 1 2 4 3 2 2 2 1 1 2 2 4 5 6 5 4 3
3 3 2 1 1 1 2 2 2 3 3 3 3 2 2 3 2 3 2 2 1 1 1 1 1 1 1 3 4 4 3 3 2 1 1 2 3 3 4 6 7 7 6
3 3 3 2 2 2 2 3 3 3 3 3 2 2 3 2 2 3 2 1 1 1 1 1 1 2 2 3 4 5 4 3 3 2 2 2 2 3 4 5 5 5 5
3 3 3 3 2 2 2 3 3 3 3 2 2 2 2 3 2 2 2 1 1 1 1 1 2 2 2 4 4 5 4 4 3 3 3 3 3 4 5 5 5 5 4
3 4 4 4 3 2 2 4 3 3 2 2 2 2 3 3 2 2 1 1 2 1 2 2 2 2 2 3 4 5 3 4 3 3 3 5 4 5 5 5 5 4 2
3 4 5 4 2 2 3 4 3 2 1 2 3 3 3 3 2 2 2 2 2 3 3 3 2 3 3 4 5 4 3 3 3 3 2 3 6 6 6 5 4 3 3
4 4 4 3 2 2 4 4 2 1 2 3 4 4 3 2 2 3 3 3 3 3 3 3 3 2 2 4 5 5 5 4 4 3 2 4 7 7 7 5 5 6 5
3 3 4 4 3 3 3 3 1 2 4 4 4 3 3 3 3 3 3 3 2 2 2 2 2 2 2 3 6 6 6 6 4 4 6 6 7 7 6 8 7 6 4
3 3 4 4 3 3 3 2 2 3 4 5 4 4 4 4 4 3 2 3 2 2 2 3 3 3 2 2 3 3 4 6 5 5 6 8 8 7 6 6 5 4 4
3 3 3 4 3 2 3 2 2 4 5 5 4 4 4 4 4 5 4 3 3 1 2 2 3 4 3 2 3 4 3 3 4 5 4 4 4 4 4 4 4 4 4
3 4 3 3 2 2 2 2 2 4 5 5 4 3 3 3 4 5 5 10 7 8 7 6 4 4 5 7 7 7 8 8 8 6 5 4 3 3 3 3 3 3 3
Wind_Direction
214 187 185 181 175 178 179 185 185 184 166 156 163 165 189 194 200 208 197 187 185 182 172 170 170 167 162 168 157 124 106 72 87 72 25 359 343 280 262 248 236 235 230
202 192 185 181 182 185 188 188 191 188 182 179 166 157 155 181 196 201 200 197 192 191 184 175 180 178 167 163 164 148 135 104 112 118 85 8 348 333 291 254 231 239 231
202 197 194 190 188 192 191 193 194 188 182 167 135 107 91 73 124 196 211 213 199 194 191 187 183 184 183 188 190 177 166 171 163 147 144 149 238 307 322 287 252 243 231
196 193 197 193 195 197 189 187 185 183 178 168 168 170 178 193 210 202 205 215 203 200 200 198 188 198 197 201 205 191 176 169 192 172 177 182 173 185 304 316 289 262 251
196 195 197 196 195 189 183 185 179 181 182 183 183 183 194 201 199 196 202 214 216 212 206 198 192 207 211 216 213 194 191 184 186 183 173 168 174 193 203 277 307 300 263
196 195 189 180 180 177 178 180 179 190 186 187 188 194 199 192 188 203 207 214 221 225 216 199 200 207 215 220 219 210 206 203 196 194 189 184 189 199 195 231 265 281 284
191 190 180 177 177 178 181 181 184 190 183 183 190 200 204 197 201 206 208 207 211 224 225 207 205 209 217 219 216 213 214 207 205 206 210 210 215 195 187 206 247 269 291
181 190 184 179 181 185 186 184 186 187 179 183 197 200 209 210 214 210 204 208 212 221 220 208 214 220 217 218 210 218 220 210 214 220 213 216 221 203 198 197 201 262 290
186 189 184 179 180 185 193 189 188 188 185 185 183 198 207 210 211 209 207 214 215 220 215 213 222 228 222 219 207 220 226 215 220 223 219 224 231 214 214 209 198 198 254
164 164 170 178 182 182 182 177 183 189 185 183 187 201 202 207 206 198 207 214 215 214 209 217 222 227 223 215 209 221 227 222 232 223 223 236 240 230 220 208 203 200 208
157 153 159 162 153 143 155 166 175 178 178 184 183 197 196 200 197 200 210 212 211 207 212 218 219 221 223 214 207 222 222 222 233 227 220 247 242 236 233 211 201 205 200
139 132 125 114 108 122 148 169 181 184 186 182 178 192 194 188 192 204 210 200 201 203 206 204 200 215 224 213 208 224 224 219 232 240 233 265 261 247 233 210 213 212 207
109 104 107 113 122 137 148 159 166 172 173 167 174 181 183 186 198 202 198 192 194 193 186 177 188 208 214 204 203 204 206 204 218 229 245 274 273 268 241 199 208 211 200
107 107 116 130 141 142 129 129 133 141 149 154 162 171 184 191 201 193 182 180 172 169 170 176 196 209 212 184 168 160 152 142 132 119 120 313 306 286 239 195 201 169 140
112 118 123 124 122 121 113 119 134 139 138 142 155 172 173 164 157 149 152 152 151 162 163 156 160 172 177 156 152 150 143 135 118 84 65 57 62 62 70 89 107 121 114
125 117 109 109 122 131 130 131 136 140 139 143 151 150 142 135 137 134 134 138 144 142 127 139 143 142 172 127 137 140 130 127 124 112 71 61 54 67 75 77 80 91 110
128 123 118 122 115 121 127 135 139 129 129 135 133 123 132 130 131 128 121 140 153 131 126 126 129 137 120 117 123 130 126 117 109 99 77 66 62 72 82 77 74 70 72
128 130 118 94 72 72 85 95 99 110 115 110 106 116 122 121 120 116 122 141 130 131 145 143 140 120 97 105 113 119 118 103 91 86 88 90 72 79 98 91 76 65 53
135 127 113 105 88 83 102 102 100 107 110 114 122 120 126 121 119 127 142 160 140 132 132 121 118 111 84 87 107 117 108 96 83 76 76 90 87 75 95 98 91 75 56
105 112 106 101 100 85 98 104 101 101 110 132 129 110 109 110 118 134 131 123 131 133 108 88 89 105 97 81 100 114 112 104 93 75 68 73 83 80 93 99 99 92 66
105 103 105 103 102 101 103 101 99 103 119 109 97 88 93 114 122 110 97 93 111 110 109 99 82 81 88 87 91 109 120 123 111 93 75 70 81 81 82 87 94 108 103
95 95 98 87 73 87 101 95 92 97 95 95 91 89 93 104 103 103 101 103 112 115 115 110 95 75 79 90 98 102 105 108 110 105 94 85 85 82 78 80 79 85 86
91 87 97 85 56 56 91 103 105 106 102 93 85 80 81 82 88 107 115 107 109 119 125 123 116 101 83 84 89 97 99 99 97 92 95 91 86 83 74 67 71 76 78
102 95 93 85 58 45 66 93 111 110 106 98 88 81 80 77 73 76 86 105 113 119 126 128 125 112 93 83 87 96 98 94 93 88 81 79 77 75 73 69 64 64 70
116 104 99 91 69 51 57 67 91 105 105 100 96 90 86 88 83 72 54 56 52 80 127 131 137 136 125 113 122 126 119 118 113 105 85 75 75 75 70 67 62 61 62
127 114 107 102 87 67 59 54 87 107 112 107 100 98 98 97 102 100 74 50 53 57 66 82 103 93 109 117 108 102 101 105 113 102 96 92 89 88 85 82 71 62 57